Location: Casilda
(33.0440°S, 61.1680°W)
Time: 22:29:20
(UTC-03:00)

ISS - Pass Details

Date: 09 July 2020
Orbit: 417 x 421 km, 51.6° (Epoch: 08 July)

Event Time Altitude Azimuth Distance (km) Brightness Sun altitude
Rises 18:42:29 0° 217° (SW) 2,401 0.3 -6.5°
Reaches altitude 10° 18:44:47 10° 206° (SSW) 1,529 -0.9 -6.9°
Maximum altitude 18:47:51 30° 142° (SE) 805 -2.8 -7.5°
Drops below altitude 10° 18:50:53 10° 79° (E) 1,514 -1.4 -8.1°
Enters shadow 18:51:45 - 73° (ENE) 1,830 -1.0 -8.3°
